Station SAUF1 - St. Augustine, FL Image indicating link to RSS feed of recent meteorological observations for station SAUF1


Conditions at SAUF1 as of
(9:00 pm EDT on 06/20/2024)
0100 GMT on 06/21/2024:
     

Click on the graph icon in the table below to see a time series plot of the last five days of that observation.

5-day plot - Wind Direction Wind Direction (WDIR): NE ( 40 deg true )
5-day plot - Wind Speed Wind Speed (WSPD): 15 kts
5-day plot - Wind Gust Wind Gust (GST): 18 kts
5-day plot - Atmospheric Pressure Atmospheric Pressure (PRES):30.13 in
5-day plot - Pressure Tendency Pressure Tendency (PTDY):+0.00 in ( Steady )
5-day plot - Air Temperature Air Temperature (ATMP): 80.6 °F
5-day plot - Water Temperature Water Temperature (WTMP): 83.7 °F
5-day plot - Dew Point Dew Point (DEWP): 80.6 °F
5-day plot - Heat Index Heat Index (HEAT): 89.2 °F
5-day plot - Wind Speed at 10 Meters Wind Speed at 10 meters (WSPD10M): 16 kts
5-day plot - Wind Speed at 20 Meters Wind Speed at 20 meters (WSPD20M): 16 kts
5-day plot -  Wind Speed, Wind Gust and Atmospheric Pressure Combined plot of Wind Speed, Gust, and Air Pressure
Continuous Winds
TIME
(EDT)
5-day plot - Wind Direction WDIR 5-day plot - Wind Speed WSPD
9:00 pmNE ( 46 deg ) 15 kts
8:50 pmNE ( 37 deg ) 17 kts
8:40 pmNE ( 46 deg ) 16 kts
8:30 pmNE ( 47 deg ) 17 kts
8:20 pmNE ( 45 deg ) 17 kts
8:10 pmNE ( 42 deg ) 16 kts
 
Peak gust during the measurement hour
TIME
(EDT)
5-day plot - Gust Direction GDR 5-day plot - Gust Speed GST
8:27 pmNE ( 50 deg ) 20 kts
Previous observations
TIME
(EDT)
5-day plot - Wind Direction
WDIR
 
5-day plot - Wind Speed
WSPD
kts
5-day plot - Wind Gust
GST
kts
5-day plot - Wave Height
WVHT
ft
5-day plot - Dominant Wave Period
DPD
sec
5-day plot - Average Wave Period
APD
sec
5-day plot - Mean Wave Direction
MWD
 
5-day plot - Atmospheric Pressure
PRES
in
5-day plot - Pressure Tendency
PTDY
in
5-day plot - Air Temperature
ATMP
°F
5-day plot - Water Temperature
WTMP
°F
5-day plot - Dew Point
DEWP
°F
5-day plot - Salinity
SAL
psu
5-day plot - Visibility
VIS
nmi
5-day plot - Tide (above MLLW)
TIDE
ft
2024-06-20 08:00 pm NE 17 19----30.12-0.02 80.8 83.7 80.8---
2024-06-20 07:00 pm NE 17 20----30.12-0.03 80.8 83.7 80.8---
2024-06-20 06:00 pmENE 18 20----30.13-0.04 80.6 83.8 80.6---
2024-06-20 05:00 pm NE 15 17----30.14-0.04 81.0 84.0 81.0---
2024-06-20 04:00 pm NE 17 19----30.15-0.04 81.3 83.8 81.3---
2024-06-20 03:00 pmENE 15 17----30.17-0.02 81.1 83.7 81.1---
2024-06-20 02:00 pm E 12 14----30.18+0.00 81.3 83.5 81.3---
2024-06-20 01:00 pmENE 15 18----30.19+0.02 81.1 83.3 81.1---
2024-06-20 12:00 pm E 14 16----30.20+0.04 81.7 83.1 81.7---
2024-06-20 11:00 am E 14 16----30.18+0.04 81.7 83.1 81.7---
2024-06-20 10:00 am E 15 17----30.17+0.05 81.7 82.6 81.7---
2024-06-20 09:00 am E 16 18----30.16+0.06 81.1 82.0 81.1---
2024-06-20 08:00 am E 18 20----30.14+0.04 80.8 82.0 80.8---
2024-06-20 07:00 am E 16 19----30.12+0.03 80.6 81.9 80.6---
2024-06-20 06:00 am E 18 22----30.10+0.01 80.2 82.0 80.2---
2024-06-20 05:00 am E 18 22----30.10+0.00 80.2 82.0 80.2---
2024-06-20 04:00 am E 20 22----30.09-0.03 80.8 82.2 80.8---
2024-06-20 03:00 am E 21 24----30.09-0.05 80.8 82.4 80.8---
2024-06-20 02:00 am E 19 22----30.11-0.02 81.1 82.8 81.1---
2024-06-20 01:00 amESE 17 19----30.12+0.00 79.5 82.9 79.5---
2024-06-20 12:00 amESE 18 21----30.14+0.03 76.8 82.9 76.8---
2024-06-19 11:00 pm NE 17 19----30.13+0.01 78.4 83.1 78.4---
2024-06-19 10:00 pmENE 19 23----30.12+0.01 81.1 83.8 81.1---
2024-06-19 09:00 pmENE 19 21----30.11+0.00 81.0 83.8 81.0---